Time,TemperatureF,DewpointF,PressureIn,WindDirection,WindDirectionDegrees,WindSpeedMPH,WindSpeedGustMPH,Humidity,HourlyPrecipIn,Conditions,Clouds,dailyrainin,SoftwareType,DateUTC
2013-02-08 00:06:00,33.8,33.0,30.07,WNW,284,3.0,12.0,96,0.00,,,0.51,weatherlink.com 1.10,2013-02-08 06:06:00,
2013-02-08 00:21:00,33.3,32.0,30.07,NW,323,4.0,9.0,96,0.00,,,0.00,weatherlink.com 1.10,2013-02-08 06:21:00,
2013-02-08 00:36:00,33.1,32.0,30.07,NW,308,1.0,12.0,96,0.00,,,0.00,weatherlink.com 1.10,2013-02-08 06:36:00,
2013-02-08 00:50:00,32.9,32.0,30.07,WNW,294,3.0,8.0,96,0.00,,,0.00,weatherlink.com 1.10,2013-02-08 06:50:00,
2013-02-08 01:07:00,32.8,32.0,30.08,NW,304,2.0,9.0,96,0.00,,,0.00,weatherlink.com 1.10,2013-02-08 07:07:00,
2013-02-08 01:21:00,32.9,32.0,30.09,West,264,2.0,10.0,95,0.00,,,0.00,weatherlink.com 1.10,2013-02-08 07:21:00,
2013-02-08 01:37:00,33.0,32.0,30.10,WNW,301,2.0,9.0,94,0.00,,,0.00,weatherlink.com 1.10,2013-02-08 07:37:00,
2013-02-08 01:52:00,33.0,31.0,30.11,NW,308,5.0,13.0,93,0.00,,,0.00,weatherlink.com 1.10,2013-02-08 07:52:00,
2013-02-08 02:07:00,32.9,31.0,30.11,WNW,302,3.0,8.0,93,0.00,,,0.00,weatherlink.com 1.10,2013-02-08 08:07:00,
2013-02-08 02:23:00,32.9,31.0,30.11,WNW,302,3.0,10.0,93,0.00,,,0.00,weatherlink.com 1.10,2013-02-08 08:23:00,
2013-02-08 02:36:00,32.8,31.0,30.11,SW,236,2.0,10.0,92,0.00,,,0.00,weatherlink.com 1.10,2013-02-08 08:36:00,
2013-02-08 02:53:00,32.7,31.0,30.12,NW,309,4.0,10.0,92,0.00,,,0.00,weatherlink.com 1.10,2013-02-08 08:53:00,
2013-02-08 03:07:00,32.7,31.0,30.13,NNW,330,4.0,10.0,92,0.00,,,0.00,weatherlink.com 1.10,2013-02-08 09:07:00,
2013-02-08 03:23:00,32.7,31.0,30.14,NE,37,2.0,13.0,92,0.00,,,0.00,weatherlink.com 1.10,2013-02-08 09:23:00,
2013-02-08 03:37:00,32.7,31.0,30.15,WNW,298,3.0,10.0,92,0.00,,,0.00,weatherlink.com 1.10,2013-02-08 09:37:00,
2013-02-08 03:52:00,32.6,30.0,30.15,North,358,2.0,11.0,91,0.00,,,0.00,weatherlink.com 1.10,2013-02-08 09:52:00,
2013-02-08 04:07:00,32.6,31.0,30.16,WNW,301,2.0,8.0,92,0.00,,,0.00,weatherlink.com 1.10,2013-02-08 10:07:00,
2013-02-08 04:23:00,32.5,30.0,30.16,NNW,331,2.0,8.0,91,0.00,,,0.00,weatherlink.com 1.10,2013-02-08 10:23:00,
2013-02-08 04:37:00,32.5,30.0,30.18,WNW,291,1.0,7.0,91,0.00,,,0.00,weatherlink.com 1.10,2013-02-08 10:37:00,
2013-02-08 04:52:00,32.5,30.0,30.18,NNW,338,8.0,15.0,90,0.00,,,0.00,weatherlink.com 1.10,2013-02-08 10:52:00,
2013-02-08 05:08:00,32.5,30.0,30.19,WSW,257,2.0,10.0,90,0.00,,,0.00,weatherlink.com 1.10,2013-02-08 11:08:00,
2013-02-08 05:23:00,32.3,30.0,30.20,WNW,297,2.0,8.0,89,0.00,,,0.00,weatherlink.com 1.10,2013-02-08 11:23:00,
2013-02-08 05:38:00,32.3,29.0,30.21,West,277,4.0,11.0,88,0.00,,,0.00,weatherlink.com 1.10,2013-02-08 11:38:00,
2013-02-08 05:53:00,32.3,29.0,30.21,NNW,340,5.0,14.0,88,0.00,,,0.00,weatherlink.com 1.10,2013-02-08 11:53:00,
2013-02-08 06:08:00,32.2,29.0,30.22,NE,40,1.0,14.0,88,0.00,,,0.00,weatherlink.com 1.10,2013-02-08 12:08:00,
2013-02-08 06:23:00,32.1,29.0,30.23,NW,323,10.0,10.0,88,0.00,,,0.00,weatherlink.com 1.10,2013-02-08 12:23:00,
2013-02-08 06:39:00,32.1,29.0,30.24,North,354,2.0,13.0,88,0.00,,,0.00,weatherlink.com 1.10,2013-02-08 12:39:00,
2013-02-08 06:53:00,32.0,29.0,30.25,NNE,18,5.0,10.0,88,0.00,,,0.00,weatherlink.com 1.10,2013-02-08 12:53:00,
2013-02-08 07:08:00,31.8,29.0,30.25,NNW,328,6.0,8.0,88,0.00,,,0.00,weatherlink.com 1.10,2013-02-08 13:08:00,
2013-02-08 07:38:00,31.7,28.0,30.27,NNW,340,5.0,9.0,87,0.00,,,0.00,weatherlink.com 1.10,2013-02-08 13:38:00,
2013-02-08 07:53:00,31.6,28.0,30.28,West,276,1.0,9.0,86,0.00,,,0.00,weatherlink.com 1.10,2013-02-08 13:53:00,
2013-02-08 08:08:00,31.6,28.0,30.29,NW,310,1.0,9.0,86,0.00,,,0.00,weatherlink.com 1.10,2013-02-08 14:08:00,
2013-02-08 08:23:00,31.4,27.0,30.30,North,350,3.0,12.0,85,0.00,,,0.00,weatherlink.com 1.10,2013-02-08 14:23:00,
2013-02-08 08:38:00,31.4,28.0,30.30,North,8,5.0,7.0,86,0.00,,,0.00,weatherlink.com 1.10,2013-02-08 14:38:00,
2013-02-08 08:53:00,31.4,28.0,30.31,NW,316,5.0,10.0,86,0.00,,,0.00,weatherlink.com 1.10,2013-02-08 14:53:00,
2013-02-08 09:08:00,31.4,28.0,30.32,NNW,328,2.0,7.0,86,0.00,,,0.00,weatherlink.com 1.10,2013-02-08 15:08:00,
2013-02-08 09:24:00,31.5,28.0,30.32,NW,312,4.0,8.0,86,0.00,,,0.00,weatherlink.com 1.10,2013-02-08 15:24:00,
2013-02-08 09:38:00,31.3,27.0,30.32,NNW,340,3.0,11.0,84,0.00,,,0.00,weatherlink.com 1.10,2013-02-08 15:38:00,
2013-02-08 09:54:00,31.2,27.0,30.32,SW,224,1.0,11.0,83,0.00,,,0.00,weatherlink.com 1.10,2013-02-08 15:54:00,
2013-02-08 10:08:00,31.3,27.0,30.34,NNW,335,5.0,8.0,83,0.00,,,0.00,weatherlink.com 1.10,2013-02-08 16:08:00,
2013-02-08 10:23:00,31.0,26.0,30.34,NNW,345,6.0,9.0,83,0.00,,,0.00,weatherlink.com 1.10,2013-02-08 16:23:00,
2013-02-08 10:39:00,31.1,27.0,30.34,NNE,13,2.0,8.0,83,0.00,,,0.00,weatherlink.com 1.10,2013-02-08 16:39:00,
2013-02-08 10:53:00,31.4,27.0,30.35,NW,307,3.0,9.0,83,0.00,,,0.00,weatherlink.com 1.10,2013-02-08 16:53:00,
2013-02-08 11:09:00,31.5,27.0,30.35,West,276,1.0,6.0,83,0.00,,,0.00,weatherlink.com 1.10,2013-02-08 17:09:00,
2013-02-08 11:23:00,31.7,27.0,30.35,NW,316,4.0,5.0,83,0.00,,,0.00,weatherlink.com 1.10,2013-02-08 17:23:00,
2013-02-08 11:38:00,31.6,27.0,30.35,NW,326,3.0,8.0,82,0.00,,,0.00,weatherlink.com 1.10,2013-02-08 17:38:00,
2013-02-08 11:54:00,31.8,27.0,30.35,NNW,332,3.0,8.0,81,0.00,,,0.00,weatherlink.com 1.10,2013-02-08 17:54:00,
2013-02-08 12:09:00,31.7,26.0,30.35,West,273,2.0,9.0,80,0.00,,,0.00,weatherlink.com 1.10,2013-02-08 18:09:00,
2013-02-08 12:24:00,32.0,27.0,30.35,NNW,329,2.0,6.0,81,0.00,,,0.00,weatherlink.com 1.10,2013-02-08 18:24:00,
2013-02-08 12:39:00,31.8,27.0,30.35,NNW,345,5.0,7.0,81,0.00,,,0.00,weatherlink.com 1.10,2013-02-08 18:39:00,
2013-02-08 12:54:00,31.5,26.0,30.35,NNW,327,3.0,8.0,81,0.00,,,0.00,weatherlink.com 1.10,2013-02-08 18:54:00,
2013-02-08 13:09:00,31.2,26.0,30.35,NNW,333,3.0,9.0,82,0.00,,,0.00,weatherlink.com 1.10,2013-02-08 19:09:00,
2013-02-08 13:24:00,31.1,26.0,30.34,NNE,20,4.0,10.0,82,0.00,,,0.00,weatherlink.com 1.10,2013-02-08 19:24:00,
2013-02-08 13:39:00,31.0,26.0,30.34,NNW,339,2.0,7.0,83,0.00,,,0.00,weatherlink.com 1.10,2013-02-08 19:39:00,
2013-02-08 13:54:00,31.1,26.0,30.34,NNE,14,3.0,6.0,81,0.00,,,0.00,weatherlink.com 1.10,2013-02-08 19:54:00,
2013-02-08 14:09:00,31.4,26.0,30.34,North,360,4.0,7.0,80,0.00,,,0.00,weatherlink.com 1.10,2013-02-08 20:09:00,
2013-02-08 14:24:00,31.6,26.0,30.35,NE,53,7.0,8.0,80,0.00,,,0.00,weatherlink.com 1.10,2013-02-08 20:24:00,
2013-02-08 14:39:00,31.4,26.0,30.35,North,355,3.0,8.0,79,0.00,,,0.00,weatherlink.com 1.10,2013-02-08 20:39:00,
2013-02-08 14:54:00,31.3,26.0,30.35,NNE,13,1.0,8.0,81,0.00,,,0.00,weatherlink.com 1.10,2013-02-08 20:54:00,
2013-02-08 15:09:00,31.0,26.0,30.36,NNE,16,6.0,7.0,80,0.00,,,0.00,weatherlink.com 1.10,2013-02-08 21:09:00,
2013-02-08 15:24:00,30.6,25.0,30.36,East,82,4.0,9.0,81,0.00,,,0.00,weatherlink.com 1.10,2013-02-08 21:24:00,
2013-02-08 15:39:00,30.3,25.0,30.37,ENE,65,5.0,9.0,82,0.00,,,0.00,weatherlink.com 1.10,2013-02-08 21:39:00,
2013-02-08 15:54:00,29.9,25.0,30.37,ENE,65,5.0,8.0,82,0.00,,,0.00,weatherlink.com 1.10,2013-02-08 21:54:00,
2013-02-08 16:09:00,29.8,25.0,30.37,ENE,70,6.0,7.0,83,0.00,,,0.00,weatherlink.com 1.10,2013-02-08 22:09:00,
2013-02-08 16:24:00,29.8,26.0,30.38,WNW,299,2.0,5.0,84,0.00,,,0.00,weatherlink.com 1.10,2013-02-08 22:24:00,
2013-02-08 16:39:00,29.6,25.0,30.38,WNW,298,2.0,4.0,83,0.00,,,0.00,weatherlink.com 1.10,2013-02-08 22:39:00,
2013-02-08 16:54:00,29.5,25.0,30.38,WNW,295,0.0,1.0,83,0.00,,,0.00,weatherlink.com 1.10,2013-02-08 22:54:00,
2013-02-08 17:09:00,29.5,25.0,30.38,NNE,32,0.0,1.0,83,0.00,,,0.00,weatherlink.com 1.10,2013-02-08 23:09:00,
2013-02-08 17:24:00,29.3,25.0,30.38,NE,51,2.0,2.0,84,0.00,,,0.00,weatherlink.com 1.10,2013-02-08 23:24:00,
2013-02-08 17:39:00,29.0,25.0,30.38,ENE,72,5.0,5.0,84,0.00,,,0.00,weatherlink.com 1.10,2013-02-08 23:39:00,
2013-02-08 17:54:00,28.9,25.0,30.37,East,98,0.0,5.0,84,0.00,,,0.00,weatherlink.com 1.10,2013-02-08 23:54:00,
2013-02-08 18:09:00,28.8,25.0,30.37,East,81,1.0,6.0,85,0.00,,,0.00,weatherlink.com 1.10,2013-02-09 00:09:00,
2013-02-08 18:24:00,28.9,25.0,30.37,SE,129,1.0,2.0,85,0.00,,,0.00,weatherlink.com 1.10,2013-02-09 00:24:00,
2013-02-08 18:39:00,28.8,25.0,30.37,ENE,78,4.0,7.0,85,0.00,,,0.00,weatherlink.com 1.10,2013-02-09 00:39:00,
2013-02-08 18:54:00,28.7,25.0,30.37,East,90,2.0,3.0,86,0.00,,,0.00,weatherlink.com 1.10,2013-02-09 00:54:00,
2013-02-08 19:09:00,28.5,25.0,30.36,ENE,65,3.0,7.0,85,0.00,,,0.00,weatherlink.com 1.10,2013-02-09 01:09:00,
2013-02-08 19:25:00,28.3,24.0,30.37,East,88,2.0,5.0,85,0.00,,,0.00,weatherlink.com 1.10,2013-02-09 01:25:00,
2013-02-08 19:39:00,28.3,25.0,30.38,East,84,4.0,6.0,86,0.00,,,0.00,weatherlink.com 1.10,2013-02-09 01:39:00,
2013-02-08 20:09:00,28.0,24.0,30.39,ESE,111,2.0,6.0,86,0.00,,,0.00,weatherlink.com 1.10,2013-02-09 02:09:00,
2013-02-08 20:24:00,28.0,24.0,30.39,ESE,103,3.0,7.0,86,0.00,,,0.00,weatherlink.com 1.10,2013-02-09 02:24:00,
2013-02-08 20:39:00,28.1,25.0,30.38,ESE,115,1.0,3.0,86,0.00,,,0.00,weatherlink.com 1.10,2013-02-09 02:39:00,
2013-02-08 20:54:00,28.1,25.0,30.38,East,92,5.0,5.0,86,0.00,,,0.00,weatherlink.com 1.10,2013-02-09 02:54:00,
2013-02-08 21:09:00,27.9,25.0,30.38,East,94,5.0,5.0,87,0.00,,,0.00,weatherlink.com 1.10,2013-02-09 03:09:00,
2013-02-08 21:25:00,27.8,24.0,30.38,ESE,108,1.0,6.0,87,0.00,,,0.00,weatherlink.com 1.10,2013-02-09 03:25:00,
2013-02-08 21:39:00,27.5,24.0,30.38,SE,131,5.0,7.0,86,0.00,,,0.00,weatherlink.com 1.10,2013-02-09 03:39:00,
2013-02-08 21:54:00,27.4,24.0,30.39,East,84,4.0,6.0,87,0.00,,,0.00,weatherlink.com 1.10,2013-02-09 03:54:00,
2013-02-08 22:09:00,27.2,24.0,30.38,ESE,109,4.0,7.0,87,0.00,,,0.00,weatherlink.com 1.10,2013-02-09 04:09:00,
2013-02-08 22:25:00,27.2,24.0,30.38,East,100,5.0,7.0,87,0.00,,,0.00,weatherlink.com 1.10,2013-02-09 04:25:00,
2013-02-08 22:39:00,27.2,24.0,30.38,ENE,69,3.0,7.0,88,0.00,,,0.00,weatherlink.com 1.10,2013-02-09 04:39:00,
2013-02-08 22:54:00,27.1,24.0,30.38,SE,129,1.0,7.0,87,0.00,,,0.00,weatherlink.com 1.10,2013-02-09 04:54:00,
2013-02-08 23:10:00,27.1,24.0,30.37,SE,132,2.0,7.0,88,0.00,,,0.00,weatherlink.com 1.10,2013-02-09 05:10:00,
2013-02-08 23:25:00,27.1,24.0,30.38,East,101,3.0,5.0,88,0.00,,,0.00,weatherlink.com 1.10,2013-02-09 05:25:00,
2013-02-08 23:40:00,27.1,24.0,30.38,East,84,3.0,7.0,88,0.00,,,0.00,weatherlink.com 1.10,2013-02-09 05:40:00,
2013-02-08 23:55:00,27.3,24.0,30.38,SSE,156,4.0,10.0,88,0.00,,,0.00,weatherlink.com 1.10,2013-02-09 05:55:00,